Tracking 20626 objects as of 8-Apr-2020
HD Live streaming from Space Station
objects crossing your sky now

NSS 513 (INTELSAT 513)

Track NSS 513 (INTELSAT 513) now!
NSS 513 (INTELSAT 513) is classified as:


NORAD ID: 19121
Int'l Code: 1988-040A
Perigee: 36,200.9 km
Apogee: 36,353.2 km
Inclination: 15.4 °
Period: 1,460.9 minutes
Semi major axis: 42648 km
RCS: 9.2727 m2 (large)
Launch date: May 17, 1988
Source: Netherlands (NETH)
Launch site: FRENCH GUIANA (FRGUI)
aabbcc
Your satellite tracking list
Your tracking list is empty




NASA's NSSDC Master Catalog

Two Line Element Set (TLE):
1 19121U 88040A   20099.19019250 -.00000064  00000-0  00000+0 0  9991
2 19121  15.4032   6.4790 0017854  36.7419 137.3655  0.98572062 92293
Source of the keplerian elements: AFSPC